Home > Weather > Reykjavik > Past weeks

Flag for Iceland Weather for the Past 2 Weeks in Reykjavik, Iceland

Now
39 °F

Passing clouds.


Feels Like: 34 °F
Forecast: 36 / 46 °F
Wind: 7 mph from North

Location: Reykjavik Airport

Current Time: May 4, 2016 at 8:56:18 AM

Latest Report: May 4, 2016 at 8:00 AM


Visibility: N/A

Pressure: 29.47 "Hg

Humidity: 65%

Dew Point: 28 °F

Location of ReykjavikLocation

Historic Weather in Reykjavik — Graph

°F

Reykjavik Temperature Yesterday

Maximum temperature yesterday: 45 °F (at 12:00 PM)
Minimum temperature yesterday: 37 °F (at 1:00 AM)
Average temperature yesterday: 41 °F

High & Low Weather Summary for the Past Weeks

 TemperatureHumidityPressure
High50 °F (Apr 25, 2:00 PM)93% (Apr 23, 12:00 AM)30.54 "Hg (Apr 23, 12:00 AM)
Low30 °F (Apr 30, 5:00 AM)28% (Apr 27, 7:00 PM)29.15 "Hg (May 1, 7:00 PM)
Average40 °F73%30.02 "Hg
* Reported Apr 19 7:00 AM — May 4 7:00 AM, Reykjavik, Weather by CustomWeather, © 2016

Note: Actual official high and low records may vary slightly from our data, if they occured in-between our weather recording intervals... More about our weather records

Advertising

Reykjavik Weather History for the Previous 24 Hours

Scroll right to see more
 ConditionsComfort  
Time TempWeatherWind HumidityBarometerVisibility
7:00 AM
Wed, May 4
39 °FPassing clouds.13 mph65%29.47 "HgN/A
6:00 AM37 °FPassing clouds.17 mph70%29.47 "HgN/A
5:00 AM37 °FPassing clouds.16 mph70%29.47 "HgN/A
4:00 AM37 °FPassing clouds.15 mph75%29.47 "HgN/A
3:00 AM39 °FPassing clouds.15 mph70%29.47 "HgN/A
2:00 AM39 °FPassing clouds.13 mph70%29.50 "HgN/A
1:00 AM39 °FPassing clouds.16 mph65%29.50 "HgN/A
12:00 AM39 °FPassing clouds.9 mph65%29.50 "HgN/A
11:00 PM
Tue, May 3
39 °FPassing clouds.9 mph65%29.53 "HgN/A
10:00 PM41 °FPassing clouds.15 mph66%29.50 "HgN/A
9:00 PM41 °FPartly sunny.16 mph66%29.50 "HgN/A
8:00 PM43 °FPassing clouds.15 mph66%29.50 "HgN/A
7:00 PM43 °FPassing clouds.21 mph66%29.50 "HgN/A
6:00 PM43 °FPassing clouds.18 mph66%29.50 "HgN/A
5:00 PM43 °FPartly sunny.20 mph66%29.53 "HgN/A
4:00 PM43 °FPassing clouds.21 mph71%29.53 "HgN/A
3:00 PM43 °FScattered clouds.21 mph66%29.53 "HgN/A
2:00 PM43 °FScattered clouds.22 mph66%29.53 "HgN/A
1:00 PM45 °FScattered clouds.21 mph57%29.53 "HgN/A
12:00 PM45 °FPartly sunny.25 mph61%29.53 "HgN/A
11:00 AM43 °FBroken clouds.23 mph66%29.50 "HgN/A
10:00 AM43 °FBroken clouds.28 mph66%29.50 "HgN/A
9:00 AM43 °FBroken clouds.29 mph66%29.50 "HgN/A
8:00 AM43 °FPartly sunny.36 mph61%29.47 "HgN/A
Weather by CustomWeather, © 2016

See weather overviewHow to use our weather pages